COSMOS 2251 DEB

Satellite information

Favourite Embed

Satellite Type and Status

DEBRISIN ORBIT

Key statistics

Satellite COSMOS 2251 DEB at a glance.

Uptime

11773

Days in orbit

Revolutions

≈ 14.7

Per day

Orbit

LEO

Low Earth Orbit

Inclination

74.0

Latest

Satellite identification and parameters

Extended collection of information and parameters for COSMOS 2251 DEB.

Object identification

Identified? True

Debris? True

Object name: COSMOS 2251 DEB

International designator: 1993-036BQA

Object number (NORAD): 37975

Object ID (CCSDS): 37975

Country: COMMONWEALTH OF INDEPENDENT STATES (CIS)

Current information (Y/N): Y

RCS size: SMALL

Orbital parameters

Period: 97.905 minutes

Inclination: 74.0035 deg

SMA: 7036.625 km

Apoapsis: 731.132 km

Periapsis: 585.847 km

RAAN: 150.2058 deg

Eccentricy: 0.01032346

Argument of periapsis: 166.4579 deg

Mean anomaly: 193.9403 deg

Mean motion: 14.70808655 rev/day

Mean motion (dot): 0.00013488 rev/day2

B* drag term: 0.002033339 1/REarth

Two-line elements (TLE)

Creation date: Sept. 8, 2025, 6:18 p.m.

Reference frame: TEME

Reference center: EARTH

Epoch: Sept. 8, 2025, 10:30 a.m. UTC

TLE line 0: 0 COSMOS 2251 DEB

TLE line 1: 1 37975U 93036BQA 25251.43809524 .00013488 00000-0 20333-2 0 9999

TLE line 2: 2 37975 74.0035 150.2058 0103235 166.4579 193.9403 14.70808655683421

Live tracking on map

Real-time ground track for satellite COSMOS 2251 DEB.

In-orbit conjunctions

A list of the most updated potential collisions computed for object COSMOS 2251 DEB.

Target Orbit TCA Probability of collision Miss distance Type
ATLAS CENTAUR R/B LEO 2025-07-17 23:19:44 0.0001719885 88.0 (m) ROCKET BODY
THORAD AGENA D DEB LEO 2024-09-27 06:10:13 0.0001538903 148.0 (m) DEBRIS

Associated space launch

Military communications satellite. Destroyed in a collision with Iridium 33.

COSMOS 2251 DEB was lifted into orbit during the mission ‘Kosmos-3M | Strela-2M 51’, on board a Kosmos-3M space rocket.

The launch took place on June 16, 1993, 4:17 a.m. from 132/1 (132L).

For more information about the launch, click the button.

Launch to space Kosmos-3M | Strela-2M 51
Kosmos-3M | Strela-2M 51

Agency: N/A

Status: Launch Successful

Launch date: June 16, 1993, 4:17 a.m. UTC

Rocket: Kosmos-3M

Launch pad: 132/1 (132L)

Location: Plesetsk Cosmodrome, Russian Federation

...

Latest news about this satellite

There are no fresh news available about this satellite. Check back as we update our databases every day.


Newsletter sign-up

Weekly statistics, charts and insights to help you stay on top of the space industry.